User: anonymous   Login
Location: Castro Valley
(37.6940°N, 122.0850°W)
Time: 03:05:44
(UTC-07:00)
Language:

PANSAT - Orbit

View from above orbital plane
View from above orbital plane
View from above satellite
View from above satellite

Ground track
Ground track

The orbit data is extracted from the following two-line orbital elements,

1 25520U 98064B   16205.98660914  .00000981  00000-0  27207-4 0  9998
2 25520  28.4584  58.8088 0005365 328.7715  31.2561 15.27785594984031
Epoch (UTC): 23 July 2016 23:40:43
Eccentricity: 0.0005365
inclination: 28.4584°
perigee height: 479 km
apogee height: 486 km
right ascension of ascending node: 58.8088°
argument of perigee: 328.7715°
revolutions per day: 15.27785594
mean anomaly at epoch: 31.2561°
orbit number at epoch: 98403

The dashed part of the orbit path shows where the satellite is in the earth's shadow,  

DLR